Regional Weather Roundup
Issued by NWS

Home | Current Version | Previous Version | Text Only | Print | Product List | Glossary Off
Versions: 1 2 3 4 5 6 7 8 9 10 11 12 13 14 15 16 17 18 19 20 21 22 23 24 25 26 27 28 29 30 31 32 33 34 35 36 37 38 39 40 41 42 43 44 45 46 47 48 49 50

000
ASUS45 KTFX 260819
RWRMT
MONTANA HOURLY WEATHER ROUNDUP
NATIONAL WEATHER SERVICE GREAT FALLS MT
219 AM MDT SAT JUL 26 2014

NOTE: "FAIR" INDICATES FEW OR NO CLOUDS BELOW 12000 FEET WITH NO
SIGNIFICANT WEATHER AND/OR OBSTRUCTIONS TO VISIBILITY.

* THESE STATIONS ARE NOT UNDER NWS QUALITY CONTROL. THEY DO NOT
   REPORT WEATHER SUCH AS PRECIPITATION OR FOG.

MTZ001>007-043-260900-
WEST OF THE DIVIDE
CITY           SKY/WX    TMP DP  RH WIND       PRES   REMARKS
KALISPELL      CLEAR     46  43  89 CALM      30.10R
MISSOULA       CLEAR     55  41  59 NW5       30.13R
BUTTE          CLEAR     46  28  50 S7        30.20S
MULLAN PASS    CLEAR     48  37  66 NW5       30.22S
* ESSEX        N/A       50  43  77 N/A        N/A
* LINCOLN      N/A       47  39  74 N2         N/A
* LOOKOUT PASS N/A       49  41  74 N/A        N/A
* POLSON       N/A       55  41  59 E2         N/A
* RONAN APT    CLEAR     52  45  77 N/A        N/A
* SEELEY LAKE  N/A       42  37  83 NE1        N/A
* THOMP F APT  CLEAR     59  23  25 NW7G14     N/A
$$

MTZ008-052>055-260900-
SOUTHWEST MONTANA
CITY           SKY/WX    TMP DP  RH WIND       PRES   REMARKS
BOZEMAN        CLEAR     50  39  66 SE8       30.14R
DILLON         CLEAR     54  28  37 S5        30.16S
W YELLOWSTONE  CLEAR     37  32  82 S3        30.23R
* THREE FORKS  CLEAR     46  46 100 N/A        N/A
* BOULDER HILL N/A       53  30  41 SW2        N/A
* MONIDA PASS  N/A       51  26  38 W12        N/A
* RAYNOLDS PAS N/A       48  -6  10 N4         N/A
* WHITEHALL    N/A       56  35  45 NW6        N/A
* WISE RIVER   N/A       46  27  48 SE2        N/A
$$

MTZ009>010-012-014-046-048-049-054-260900-
EAST SLOPES AND CENTRAL MONTANA
CITY           SKY/WX    TMP DP  RH WIND       PRES   REMARKS
CUT BANK       CLEAR     48  41  77 CALM      30.08R
GREAT FALLS    CLEAR     52  37  57 SW8       30.06R
HELENA         CLEAR     61  37  41 VRB5      30.11R
MALMSTROM AFB  CLEAR     54  39  57 NE8       30.08R
* CONRAD       CLEAR     48  48 100 N/A        N/A
* DEARBORN     N/A       57  37  47 S2         N/A
* EAST GLACIER N/A       55  37  51 W5G11      N/A
* MONARCH      N/A       49  29  46 E4         N/A
* SAINT MARY   N/A       57  39  51 S6G16      N/A
* SWEET GRASS  N/A       53  49  86 N7         N/A
* WHITE SULPH  N/A       56  34  44 SW2        N/A
$$

MTZ011-013-016-021-035-040-045-047-050-051-260900-
NORTH CENTRAL MONTANA
CITY           SKY/WX    TMP DP  RH WIND       PRES   REMARKS
HAVRE          CLEAR     54  46  74 SW9       30.01S
LEWISTOWN      CLEAR     54  39  57 S3        30.09R
* FORT BENTON  CLEAR     55  46  72 CALM      30.07R
* CHESTER      N/A       54  45  72 NW4        N/A
* DENTON       N/A       50  45  83 W5         N/A
* GEYSER       N/A       51  34  52 NW4        N/A
* JUDITH GAP   N/A       55  34  45 N11        N/A
* LOMA         N/A       54  47  77 S3         N/A
$$

MTZ017>020-022>027-061-062-260900-
NORTHEAST MONTANA
CITY           SKY/WX    TMP DP  RH WIND       PRES   REMARKS
GLASGOW        CLEAR     57  48  72 W14       29.91R
GLENDIVE       CLEAR     55  46  72 SW3       29.95R
JORDAN         CLEAR     55  45  69 CALM      29.99R
SIDNEY         CLEAR     61  46  58 W9        29.89F
WOLF POINT     CLEAR     59  46  62 W12       29.89R
* BEAVER HILL  N/A       57  47  69 NW6        N/A
* CIRCLE       N/A       57  47  69 N/A        N/A
* LINDSAY DVD  N/A       56  47  72 W11        N/A
* NAVAJO       N/A       57  50  78 W12G22     N/A
$$

MTZ028>042-056>058-260900-
SOUTHCENTRAL AND SOUTHEAST MONTANA
CITY           SKY/WX    TMP DP  RH WIND       PRES   REMARKS
BAKER          CLEAR     55  43  64 N6        29.96R
BILLINGS       CLEAR     64  30  28 NW7       30.06R
LIVINGSTON     CLEAR     54  34  47 W7        30.12R
MILES CITY     CLEAR     61  45  56 NW7       29.97R
* LAUREL APT   CLEAR     61  28  29 N/A        N/A
* ROUNDUP APT  CLEAR     63  30  29 N/A        N/A
* ALZADA       N/A       58  51  78 W3         N/A
* HYSHAM       N/A       64  32  30 NE4G9      N/A
* LAME DEER    N/A       65  29  26 NW9G14     N/A
* REED POINT   N/A       57  33  40 NE3        N/A
* ROSCOE HILL  N/A       60  28  30 SE6        N/A
$$

REGIONAL REPORTS...DAKOTAS
CITY           SKY/WX    TMP DP  RH WIND       PRES   REMARKS
WILLISTON      CLEAR     55  50  83 SW5       29.84S
DICKINSON      CLEAR     57  46  67 NW10      29.87R
CROSBY         N/A       57  54  90 SW14      29.79S
TIOGA          CLEAR     55  55 100 W13       29.85S
WATFORD CITY   CLEAR     52  50  93 SW7       29.84F
BISMARCK       CLEAR     63  54  73 W6        29.82R
GRAND FORKS    CLEAR     61  55  81 S8        29.76F
FARGO          CLEAR     57  54  90 CALM      29.79F
BUFFALO SD     CLEAR     63  48  58 W8        29.84S
RAPID CITY     CLEAR     61  52  72 N8        29.88F
$$

REGIONAL REPORTS...WYOMING/IDAHO/WASHINGTON
CITY           SKY/WX    TMP DP  RH WIND       PRES   REMARKS
GILLETTE       CLEAR     61  34  36 W3        30.02R
SHERIDAN       CLEAR     64  30  28 NW13      30.06R
YELLOWSTONE LA CLEAR     37  28  70 CALM      30.31S
SALMON         CLEAR     57  32  39 S7        30.13R
MULLAN PASS    CLEAR     48  37  66 NW5       30.22S
SAND POINT     CLEAR     46  46 100 CALM      30.10R
SPOKANE        CLEAR     61  37  41 CALM      30.07S
$$

REGIONAL REPORTS...ALBERTA
CITY           SKY/WX    TMP DP  RH WIND       PRES   REMARKS
CALGARY        MOCLDY    54  46  74 N10       30.06R
LETHBRIDGE     CLEAR     48  46  93 S7        30.06R
MEDICINE HAT   CLOUDY    55  52  90 NW14G25   29.96R
EDMONTON       LGT RAIN  54  52  93 W9        29.96R
WATERTON GATE  N/A       55  37  51 SW10G17    N/A
CARDSTON       N/A       50  41  71 NE2        N/A
MILK RIVER     N/A       43  41  93 NW5        N/A
$$

REGIONAL REPORTS...SASKATCHEWAN
CITY           SKY/WX    TMP DP  RH WIND       PRES   REMARKS
SWIFT CURRENT  CLOUDY    54  52  93 W22G29    29.81S
REGINA         LGT RAIN  55  54  96 W24G33    29.65F
VAL MARIE      N/A       55  52  90 W10        N/A
ASSINIBOIA     N/A       55  52  90 W22G31     N/A
CORONACH       N/A       55  50  83 W16G22     N/A

$$




USA.gov is the U.S. government's official web portal to all federal, state and local government web resources and services.